| time (UTC) | temp F | wind direction | speed MPH | gust MPH | rain 1hr in | rain 24hr in | rain mn in | humidity % | barometer mb |
| 20260510012519 | 55 | 331 | 4.0 | 8.0 | 0.00 | 0.00 | 0.00 | 36 | 1009.6 |
| 20260510012015 | 55 | 339 | 3.0 | 8.0 | 0.00 | 0.00 | 0.00 | 36 | 1009.6 |
| 20260510011532 | 56 | 312 | 4.0 | 10.0 | 0.00 | 0.00 | 0.00 | 35 | 1009.5 |
| 20260510011015 | 56 | 326 | 4.0 | 10.0 | 0.00 | 0.00 | 0.00 | 35 | 1009.3 |
| 20260510010515 | 56 | 317 | 4.0 | 11.0 | 0.00 | 0.00 | 0.00 | 35 | 1009.1 |
| 20260510010031 | 56 | 331 | 4.0 | 11.0 | 0.00 | 0.00 | 0.00 | 36 | 1009.0 |
| 20260510005516 | 57 | 331 | 5.0 | 11.0 | 0.00 | 0.00 | 0.00 | 36 | 1009.0 |
| 20260510005017 | 57 | 360 | 4.0 | 11.0 | 0.00 | 0.00 | 0.00 | 36 | 1008.9 |
| 20260510004534 | 57 | 18 | 6.0 | 11.0 | 0.00 | 0.00 | 0.00 | 35 | 1008.9 |
| 20260510004016 | 58 | 343 | 4.0 | 11.0 | 0.00 | 0.00 | 0.00 | 35 | 1008.8 |
| 20260510003516 | 58 | 330 | 6.0 | 12.0 | 0.00 | 0.00 | 0.00 | 35 | 1008.7 |
| 20260510003037 | 58 | 316 | 6.0 | 13.0 | 0.00 | 0.00 | 0.00 | 35 | 1008.6 |
| 20260510002515 | 58 | 306 | 7.0 | 13.0 | 0.00 | 0.00 | 0.00 | 35 | 1008.4 |
| 20260510002020 | 59 | 331 | 5.0 | 13.0 | 0.00 | 0.00 | 0.00 | 35 | 1008.4 |
| 20260510001530 | 59 | 5 | 5.0 | 13.0 | 0.00 | 0.00 | 0.00 | 35 | 1008.2 |
| 20260510001016 | 59 | 305 | 7.0 | 13.0 | 0.00 | 0.00 | 0.00 | 35 | 1008.2 |
| 20260510000516 | 59 | 344 | 7.0 | 15.0 | 0.00 | 0.00 | 0.00 | 35 | 1008.1 |
| 20260510000032 | 59 | 348 | 7.0 | 19.0 | 0.00 | 0.00 | 0.00 | 35 | 1007.9 |
| 20260509235515 | 59 | 333 | 6.0 | 19.0 | 0.00 | 0.00 | 0.00 | 34 | 1007.8 |
| 20260509235019 | 60 | 319 | 10.0 | 20.0 | 0.00 | 0.00 | 0.00 | 33 | 1007.7 |
| 20260509234537 | 60 | 15 | 11.0 | 20.0 | 0.00 | 0.00 | 0.00 | 33 | 1007.7 |
| 20260509234016 | 59 | 329 | 10.0 | 16.0 | 0.00 | 0.00 | 0.00 | 35 | 1007.6 |
| 20260509233516 | 60 | 320 | 9.0 | 16.0 | 0.00 | 0.00 | 0.00 | 35 | 1007.6 |
| 20260509233030 | 59 | 339 | 8.0 | 20.0 | 0.00 | 0.00 | 0.00 | 35 | 1007.5 |
| 20260509232516 | 60 | 352 | 12.0 | 20.0 | 0.00 | 0.00 | 0.00 | 34 | 1007.4 |
| 20260509232016 | 60 | 295 | 5.0 | 17.0 | 0.00 | 0.00 | 0.00 | 34 | 1007.4 |
| 20260509231533 | 61 | 343 | 10.0 | 19.0 | 0.00 | 0.00 | 0.00 | 33 | 1007.3 |
| 20260509231020 | 60 | 308 | 12.0 | 19.0 | 0.00 | 0.00 | 0.00 | 34 | 1007.2 |
| 20260509230516 | 61 | 325 | 11.0 | 17.0 | 0.00 | 0.00 | 0.00 | 34 | 1007.0 |
| 20260509230034 | 61 | 350 | 9.0 | 24.0 | 0.00 | 0.00 | 0.00 | 34 | 1007.0 |
| 20260509225516 | 61 | 344 | 12.0 | 24.0 | 0.00 | 0.00 | 0.00 | 34 | 1007.0 |
| 20260509225015 | 61 | 314 | 14.0 | 20.0 | 0.00 | 0.00 | 0.00 | 34 | 1006.9 |
| 20260509224530 | 62 | 334 | 11.0 | 21.0 | 0.00 | 0.00 | 0.00 | 36 | 1006.9 |
| 20260509224016 | 61 | 279 | 13.0 | 21.0 | 0.00 | 0.00 | 0.00 | 34 | 1006.8 |
| 20260509223517 | 61 | 312 | 8.0 | 20.0 | 0.00 | 0.00 | 0.00 | 37 | 1006.8 |
| 20260509223030 | 61 | 338 | 10.0 | 20.0 | 0.00 | 0.00 | 0.00 | 37 | 1006.7 |
| 20260509222515 | 61 | 9 | 11.0 | 21.0 | 0.00 | 0.00 | 0.00 | 36 | 1006.7 |
| 20260509222016 | 61 | 324 | 11.0 | 21.0 | 0.00 | 0.00 | 0.00 | 37 | 1006.7 |
| 20260509221535 | 61 | 315 | 13.0 | 21.0 | 0.00 | 0.00 | 0.00 | 36 | 1006.5 |
| 20260509221015 | 61 | 294 | 12.0 | 19.0 | 0.00 | 0.00 | 0.00 | 38 | 1006.4 |
| 20260509220514 | 61 | 329 | 8.0 | 19.0 | 0.00 | 0.00 | 0.00 | 37 | 1006.4 |
| 20260509220030 | 60 | 350 | 11.0 | 22.0 | 0.00 | 0.00 | 0.00 | 38 | 1006.3 |
| 20260509215514 | 61 | 346 | 12.0 | 22.0 | 0.00 | 0.00 | 0.00 | 38 | 1006.2 |
| 20260509215014 | 61 | 302 | 11.0 | 24.0 | 0.00 | 0.00 | 0.00 | 39 | 1006.1 |
| 20260509214532 | 61 | 292 | 14.0 | 24.0 | 0.00 | 0.00 | 0.00 | 39 | 1006.2 |
| 20260509214014 | 60 | 9 | 12.0 | 22.0 | 0.00 | 0.00 | 0.00 | 40 | 1006.0 |
| 20260509213515 | 61 | 330 | 10.0 | 19.0 | 0.00 | 0.00 | 0.00 | 39 | 1006.0 |
| 20260509213033 | 61 | 332 | 9.0 | 20.0 | 0.00 | 0.00 | 0.00 | 38 | 1005.9 |
| 20260509212513 | 62 | 290 | 12.0 | 27.0 | 0.00 | 0.00 | 0.00 | 38 | 1005.9 |
| 20260509212016 | 62 | 350 | 15.0 | 25.0 | 0.00 | 0.00 | 0.00 | 38 | 1005.8 |
| 20260509211531 | 62 | 324 | 9.0 | 26.0 | 0.00 | 0.00 | 0.00 | 38 | 1005.8 |
| 20260509211017 | 62 | 336 | 17.0 | 26.0 | 0.00 | 0.00 | 0.00 | 37 | 1005.8 |
| 20260509210516 | 63 | 311 | 11.0 | 23.0 | 0.00 | 0.00 | 0.00 | 37 | 1005.7 |
| 20260509210035 | 62 | 304 | 14.0 | 22.0 | 0.00 | 0.00 | 0.00 | 37 | 1005.6 |
| 20260509205515 | 62 | 290 | 14.0 | 21.0 | 0.00 | 0.00 | 0.00 | 37 | 1005.7 |
| 20260509205018 | 63 | 311 | 10.0 | 21.0 | 0.00 | 0.00 | 0.00 | 38 | 1005.7 |
| 20260509204530 | 62 | 312 | 13.0 | 18.0 | 0.00 | 0.00 | 0.00 | 39 | 1005.5 |
| 20260509204014 | 61 | 347 | 9.0 | 23.0 | 0.00 | 0.00 | 0.00 | 40 | 1005.4 |
| 20260509203514 | 62 | 304 | 10.0 | 23.0 | 0.00 | 0.00 | 0.00 | 38 | 1005.5 |
| 20260509203032 | 62 | 309 | 14.0 | 23.0 | 0.00 | 0.00 | 0.00 | 39 | 1005.4 |
| 20260509202515 | 62 | 334 | 13.0 | 23.0 | 0.00 | 0.00 | 0.00 | 40 | 1005.5 |
| 20260509202016 | 63 | 297 | 11.0 | 26.0 | 0.00 | 0.00 | 0.00 | 39 | 1005.2 |
| 20260509201530 | 63 | 261 | 13.0 | 26.0 | 0.00 | 0.00 | 0.00 | 39 | 1005.3 |
| 20260509201014 | 63 | 289 | 11.0 | 29.0 | 0.00 | 0.00 | 0.00 | 40 | 1005.3 |
| 20260509200514 | 62 | 339 | 16.0 | 29.0 | 0.00 | 0.00 | 0.00 | 39 | 1005.3 |
| 20260509200030 | 63 | 300 | 14.0 | 25.0 | 0.00 | 0.00 | 0.00 | 39 | 1005.1 |
| 20260509195521 | 63 | 288 | 12.0 | 24.0 | 0.00 | 0.00 | 0.00 | 40 | 1004.9 |
| 20260509195014 | 63 | 317 | 15.0 | 25.0 | 0.00 | 0.00 | 0.00 | 40 | 1004.9 |
| 20260509194533 | 63 | 323 | 11.0 | 25.0 | 0.00 | 0.00 | 0.00 | 39 | 1004.8 |
| 20260509194014 | 64 | 327 | 13.0 | 23.0 | 0.00 | 0.00 | 0.00 | 40 | 1004.9 |
| 20260509193514 | 63 | 327 | 12.0 | 22.0 | 0.00 | 0.00 | 0.00 | 41 | 1004.7 |
| 20260509193036 | 64 | 300 | 13.0 | 25.0 | 0.00 | 0.00 | 0.00 | 42 | 1004.5 |
| 20260509192515 | 63 | 331 | 12.0 | 31.0 | 0.00 | 0.00 | 0.00 | 42 | 1004.4 |
| 20260509192020 | 64 | 332 | 18.0 | 31.0 | 0.00 | 0.00 | 0.00 | 40 | 1004.5 |
| 20260509191534 | 65 | 290 | 13.0 | 27.0 | 0.00 | 0.00 | 0.00 | 37 | 1004.2 |
| 20260509191016 | 64 | 337 | 18.0 | 27.0 | 0.00 | 0.00 | 0.00 | 36 | 1003.8 |
| 20260509190517 | 65 | 298 | 16.0 | 27.0 | 0.00 | 0.00 | 0.00 | 35 | 1003.8 |
| 20260509190035 | 66 | 313 | 16.0 | 27.0 | 0.00 | 0.00 | 0.00 | 35 | 1003.7 |
| 20260509185516 | 65 | 331 | 12.0 | 26.0 | 0.00 | 0.00 | 0.00 | 36 | 1003.6 |
| 20260509185016 | 65 | 286 | 11.0 | 21.0 | 0.00 | 0.00 | 0.00 | 36 | 1003.6 |
| 20260509184540 | 66 | 342 | 13.0 | 21.0 | 0.00 | 0.00 | 0.00 | 35 | 1003.4 |
| 20260509184015 | 65 | 352 | 12.0 | 21.0 | 0.00 | 0.00 | 0.00 | 33 | 1003.4 |
| 20260509183515 | 65 | 279 | 13.0 | 19.0 | 0.00 | 0.00 | 0.00 | 34 | 1003.2 |
| 20260509183033 | 65 | 301 | 12.0 | 20.0 | 0.00 | 0.00 | 0.00 | 34 | 1003.1 |
| 20260509182516 | 64 | 333 | 10.0 | 20.0 | 0.00 | 0.00 | 0.00 | 35 | 1003.1 |
| 20260509182015 | 64 | 292 | 10.0 | 29.0 | 0.00 | 0.00 | 0.00 | 35 | 1002.9 |
| 20260509181530 | 64 | 247 | 12.0 | 29.0 | 0.00 | 0.00 | 0.00 | 35 | 1002.9 |
| 20260509181022 | 65 | 318 | 9.0 | 21.0 | 0.00 | 0.00 | 0.00 | 35 | 1002.9 |
| 20260509180516 | 66 | 273 | 10.0 | 21.0 | 0.00 | 0.00 | 0.00 | 34 | 1003.0 |
| 20260509180032 | 66 | 257 | 10.0 | 21.0 | 0.00 | 0.00 | 0.00 | 33 | 1003.1 |
| 20260509175516 | 64 | 283 | 12.0 | 23.0 | 0.00 | 0.00 | 0.00 | 35 | 1003.0 |
| 20260509175019 | 65 | 249 | 14.0 | 23.0 | 0.00 | 0.00 | 0.00 | 34 | 1003.1 |
| 20260509174531 | 65 | 254 | 10.0 | 20.0 | 0.00 | 0.00 | 0.00 | 35 | 1003.1 |
| 20260509174019 | 65 | 248 | 10.0 | 17.0 | 0.00 | 0.00 | 0.00 | 34 | 1003.3 |
| 20260509173516 | 65 | 262 | 6.0 | 18.0 | 0.00 | 0.00 | 0.00 | 37 | 1003.1 |
| 20260509173032 | 64 | 253 | 9.0 | 23.0 | 0.00 | 0.00 | 0.00 | 34 | 1003.2 |
| 20260509172516 | 63 | 255 | 11.0 | 23.0 | 0.00 | 0.00 | 0.00 | 35 | 1003.2 |
| 20260509172016 | 64 | 300 | 11.0 | 22.0 | 0.00 | 0.00 | 0.00 | 35 | 1003.1 |
| 20260509171540 | 64 | 293 | 12.0 | 20.0 | 0.00 | 0.00 | 0.00 | 35 | 1003.2 |
| 20260509171015 | 64 | 296 | 4.0 | 15.0 | 0.00 | 0.00 | 0.00 | 36 | 1003.1 |
| 20260509170516 | 62 | 309 | 5.0 | 15.0 | 0.00 | 0.00 | 0.00 | 34 | 1003.1 |
| 20260509170035 | 63 | 245 | 8.0 | 15.0 | 0.00 | 0.00 | 0.00 | 35 | 1003.2 |
| 20260509165513 | 63 | 227 | 6.0 | 15.0 | 0.00 | 0.00 | 0.00 | 34 | 1003.1 |
| 20260509165015 | 63 | 309 | 9.0 | 15.0 | 0.00 | 0.00 | 0.00 | 36 | 1003.1 |
| 20260509164533 | 61 | 290 | 6.0 | 17.0 | 0.00 | 0.00 | 0.00 | 35 | 1003.2 |
| 20260509164015 | 61 | 233 | 7.0 | 17.0 | 0.00 | 0.00 | 0.00 | 35 | 1003.4 |
| 20260509163516 | 61 | 296 | 8.0 | 14.0 | 0.00 | 0.00 | 0.00 | 36 | 1003.5 |
| 20260509163031 | 60 | 294 | 8.0 | 16.0 | 0.00 | 0.00 | 0.00 | 35 | 1003.6 |
| 20260509162518 | 61 | 308 | 7.0 | 18.0 | 0.00 | 0.00 | 0.00 | 33 | 1003.6 |
| 20260509162016 | 61 | 274 | 8.0 | 18.0 | 0.00 | 0.00 | 0.00 | 35 | 1003.8 |
| 20260509161533 | 61 | 269 | 10.0 | 16.0 | 0.00 | 0.00 | 0.00 | 34 | 1003.7 |
| 20260509161018 | 60 | 344 | 7.0 | 16.0 | 0.00 | 0.00 | 0.00 | 35 | 1003.8 |
| 20260509160514 | 59 | 336 | 11.0 | 16.0 | 0.00 | 0.00 | 0.00 | 35 | 1003.7 |
| 20260509160030 | 59 | 254 | 6.0 | 14.0 | 0.00 | 0.00 | 0.00 | 38 | 1003.7 |
| 20260509155514 | 59 | 350 | 8.0 | 14.0 | 0.00 | 0.00 | 0.00 | 37 | 1003.7 |
| 20260509155014 | 60 | 17 | 7.0 | 15.0 | 0.00 | 0.00 | 0.00 | 35 | 1003.7 |
| 20260509154535 | 60 | 320 | 8.0 | 16.0 | 0.00 | 0.00 | 0.00 | 38 | 1003.7 |
| 20260509154014 | 59 | 302 | 11.0 | 16.0 | 0.00 | 0.00 | 0.00 | 37 | 1003.7 |
| 20260509153514 | 59 | 312 | 8.0 | 17.0 | 0.00 | 0.00 | 0.00 | 37 | 1003.6 |
| 20260509153031 | 59 | 319 | 8.0 | 17.0 | 0.00 | 0.00 | 0.00 | 37 | 1003.6 |
| 20260509152514 | 60 | 317 | 9.0 | 17.0 | 0.00 | 0.00 | 0.00 | 37 | 1003.6 |
| 20260509152014 | 60 | 314 | 7.0 | 15.0 | 0.00 | 0.00 | 0.00 | 40 | 1003.4 |
| 20260509151530 | 60 | 329 | 6.0 | 15.0 | 0.00 | 0.00 | 0.00 | 40 | 1003.3 |
| 20260509151013 | 58 | 311 | 11.0 | 15.0 | 0.00 | 0.00 | 0.00 | 38 | 1003.4 |
| 20260509150513 | 59 | 288 | 8.0 | 15.0 | 0.00 | 0.00 | 0.00 | 41 | 1003.5 |
| 20260509150033 | 58 | 334 | 7.0 | 13.0 | 0.00 | 0.00 | 0.00 | 41 | 1003.5 |
| 20260509145515 | 58 | 331 | 8.0 | 11.0 | 0.00 | 0.00 | 0.00 | 41 | 1003.4 |
| 20260509145015 | 57 | 298 | 7.0 | 11.0 | 0.00 | 0.00 | 0.00 | 43 | 1003.4 |
| 20260509144551 | 57 | 294 | 8.0 | 12.0 | 0.00 | 0.00 | 0.00 | 42 | 1003.5 |
| 20260509144014 | 57 | 290 | 6.0 | 13.0 | 0.00 | 0.00 | 0.00 | 43 | 1003.4 |
| 20260509143517 | 56 | 309 | 8.0 | 13.0 | 0.00 | 0.00 | 0.00 | 44 | 1003.2 |
| 20260509143032 | 57 | 295 | 7.0 | 13.0 | 0.00 | 0.00 | 0.00 | 44 | 1003.1 |
| 20260509142517 | 57 | 310 | 6.0 | 14.0 | 0.00 | 0.00 | 0.00 | 45 | 1003.1 |
| 20260509142015 | 56 | 315 | 8.0 | 14.0 | 0.00 | 0.00 | 0.00 | 45 | 1003.2 |
| 20260509141540 | 56 | 297 | 7.0 | 12.0 | 0.00 | 0.00 | 0.00 | 45 | 1003.2 |
| 20260509141030 | 56 | 302 | 6.0 | 12.0 | 0.00 | 0.00 | 0.00 | 45 | 1002.9 |
| 20260509140514 | 56 | 336 | 7.0 | 13.0 | 0.00 | 0.00 | 0.00 | 44 | 1002.7 |
| 20260509140031 | 56 | 326 | 9.0 | 13.0 | 0.00 | 0.00 | 0.00 | 44 | 1002.9 |
| 20260509135515 | 56 | 312 | 8.0 | 12.0 | 0.00 | 0.00 | 0.00 | 44 | 1002.9 |
| 20260509135015 | 56 | 312 | 6.0 | 15.0 | 0.00 | 0.00 | 0.00 | 45 | 1002.8 |
| 20260509134532 | 56 | 323 | 6.0 | 15.0 | 0.00 | 0.00 | 0.00 | 44 | 1002.8 |
| 20260509134017 | 56 | 310 | 10.0 | 15.0 | 0.00 | 0.00 | 0.00 | 44 | 1002.8 |
| 20260509133514 | 56 | 272 | 6.0 | 15.0 | 0.00 | 0.00 | 0.00 | 46 | 1002.7 |
| 20260509133034 | 56 | 311 | 9.0 | 15.0 | 0.00 | 0.00 | 0.00 | 45 | 1002.8 |
| 20260509132516 | 56 | 313 | 7.0 | 15.0 | 0.00 | 0.00 | 0.00 | 46 | 1002.7 |
| 20260509132014 | 56 | 296 | 6.0 | 14.0 | 0.00 | 0.00 | 0.00 | 45 | 1002.5 |
| 20260509131537 | 55 | 330 | 6.0 | 12.0 | 0.00 | 0.00 | 0.00 | 47 | 1002.4 |
| 20260509131017 | 55 | 315 | 7.0 | 12.0 | 0.00 | 0.00 | 0.00 | 46 | 1002.3 |
| 20260509130516 | 55 | 278 | 5.0 | 13.0 | 0.00 | 0.00 | 0.00 | 47 | 1002.1 |
| 20260509130032 | 55 | 303 | 7.0 | 13.0 | 0.00 | 0.00 | 0.00 | 46 | 1002.1 |
| 20260509125516 | 55 | 331 | 7.0 | 13.0 | 0.00 | 0.00 | 0.00 | 47 | 1002.1 |
| 20260509125016 | 55 | 313 | 6.0 | 13.0 | 0.00 | 0.00 | 0.00 | 46 | 1002.1 |
| 20260509124535 | 55 | 263 | 5.0 | 13.0 | 0.00 | 0.00 | 0.00 | 48 | 1002.0 |
| 20260509124017 | 55 | 273 | 6.0 | 13.0 | 0.00 | 0.00 | 0.00 | 48 | 1001.9 |
| 20260509123516 | 55 | 254 | 5.0 | 12.0 | 0.00 | 0.00 | 0.00 | 49 | 1001.9 |
| 20260509123033 | 55 | 251 | 6.0 | 11.0 | 0.00 | 0.00 | 0.00 | 49 | 1001.8 |
| 20260509122515 | 54 | 309 | 3.0 | 9.0 | 0.00 | 0.00 | 0.00 | 50 | 1001.9 |
| 20260509122015 | 55 | 351 | 5.0 | 11.0 | 0.00 | 0.00 | 0.00 | 50 | 1001.9 |
| 20260509121533 | 55 | 308 | 5.0 | 11.0 | 0.00 | 0.00 | 0.00 | 51 | 1001.6 |
| 20260509121016 | 55 | 252 | 6.0 | 13.0 | 0.00 | 0.00 | 0.00 | 51 | 1001.6 |
| 20260509120517 | 55 | 288 | 5.0 | 13.0 | 0.00 | 0.00 | 0.00 | 51 | 1001.5 |
| 20260509120032 | 55 | 311 | 8.0 | 13.0 | 0.00 | 0.00 | 0.00 | 50 | 1001.5 |
| 20260509115516 | 55 | 317 | 7.0 | 12.0 | 0.00 | 0.00 | 0.00 | 53 | 1001.6 |
| 20260509115016 | 54 | 266 | 6.0 | 12.0 | 0.00 | 0.00 | 0.00 | 54 | 1001.4 |
| 20260509114530 | 54 | 316 | 6.0 | 13.0 | 0.00 | 0.00 | 0.00 | 56 | 1001.4 |
| 20260509114016 | 54 | 273 | 5.0 | 13.0 | 0.00 | 0.00 | 0.00 | 58 | 1001.4 |
| 20260509113515 | 54 | 290 | 6.0 | 13.0 | 0.00 | 0.00 | 0.00 | 59 | 1001.3 |
| 20260509113031 | 54 | 298 | 6.0 | 14.0 | 0.00 | 0.00 | 0.00 | 61 | 1001.3 |
| 20260509112516 | 54 | 300 | 6.0 | 14.0 | 0.00 | 0.00 | 0.00 | 63 | 1001.1 |
| 20260509112016 | 54 | 298 | 7.0 | 14.0 | 0.00 | 0.00 | 0.00 | 65 | 1001.1 |
| 20260509111530 | 54 | 325 | 6.0 | 12.0 | 0.00 | 0.00 | 0.00 | 67 | 1001.1 |
| 20260509111016 | 53 | 297 | 6.0 | 10.0 | 0.00 | 0.00 | 0.00 | 69 | 1001.0 |
| 20260509110515 | 53 | 221 | 3.0 | 12.0 | 0.00 | 0.00 | 0.00 | 70 | 1000.9 |
| 20260509110030 | 54 | 266 | 5.0 | 13.0 | 0.00 | 0.00 | 0.00 | 71 | 1000.9 |
| 20260509105516 | 54 | 250 | 6.0 | 15.0 | 0.00 | 0.00 | 0.00 | 72 | 1000.9 |
| 20260509105016 | 54 | 259 | 5.0 | 15.0 | 0.00 | 0.00 | 0.00 | 72 | 1000.8 |
| 20260509104534 | 54 | 261 | 6.0 | 15.0 | 0.00 | 0.00 | 0.00 | 73 | 1000.9 |
| 20260509104016 | 53 | 306 | 5.0 | 11.0 | 0.00 | 0.00 | 0.00 | 73 | 1000.8 |
| 20260509103516 | 53 | 242 | 5.0 | 11.0 | 0.00 | 0.00 | 0.00 | 73 | 1000.6 |
| 20260509103031 | 53 | 237 | 4.0 | 9.0 | 0.00 | 0.00 | 0.00 | 74 | 1000.6 |
| 20260509102518 | 54 | 265 | 4.0 | 11.0 | 0.00 | 0.00 | 0.00 | 74 | 1000.6 |
| 20260509102016 | 54 | 263 | 4.0 | 11.0 | 0.00 | 0.00 | 0.00 | 74 | 1000.6 |
| 20260509101531 | 54 | 239 | 3.0 | 9.0 | 0.00 | 0.00 | 0.00 | 74 | 1000.5 |
| 20260509101015 | 54 | 226 | 4.0 | 10.0 | 0.00 | 0.00 | 0.00 | 74 | 1000.6 |
| 20260509100514 | 54 | 274 | 4.0 | 10.0 | 0.00 | 0.00 | 0.00 | 73 | 1000.6 |
| 20260509100047 | 55 | 200 | 3.0 | 12.0 | 0.00 | 0.00 | 0.00 | 73 | 1000.5 |
| 20260509095515 | 55 | 241 | 6.0 | 14.0 | 0.00 | 0.00 | 0.00 | 73 | 1000.4 |
| 20260509095020 | 55 | 240 | 5.0 | 14.0 | 0.00 | 0.00 | 0.00 | 73 | 1000.5 |
| 20260509094533 | 55 | 273 | 6.0 | 15.0 | 0.00 | 0.00 | 0.00 | 73 | 1000.5 |
| 20260509094016 | 55 | 217 | 4.0 | 15.0 | 0.00 | 0.00 | 0.00 | 73 | 1000.5 |
| 20260509093516 | 55 | 317 | 7.0 | 15.0 | 0.00 | 0.00 | 0.00 | 73 | 1000.6 |
| 20260509093034 | 55 | 234 | 5.0 | 14.0 | 0.00 | 0.00 | 0.00 | 73 | 1000.7 |
| 20260509092515 | 55 | 178 | 5.0 | 17.0 | 0.00 | 0.00 | 0.00 | 73 | 1000.8 |
| 20260509092013 | 55 | 206 | 6.0 | 17.0 | 0.00 | 0.00 | 0.00 | 73 | 1000.8 |
| 20260509091530 | 55 | 236 | 7.0 | 17.0 | 0.00 | 0.00 | 0.00 | 73 | 1000.8 |
| 20260509091015 | 55 | 241 | 5.0 | 14.0 | 0.00 | 0.00 | 0.00 | 72 | 1000.8 |
| 20260509090513 | 55 | 202 | 8.0 | 14.0 | 0.00 | 0.00 | 0.00 | 72 | 1000.8 |
| 20260509090032 | 55 | 259 | 5.0 | 19.0 | 0.00 | 0.00 | 0.00 | 72 | 1000.8 |
| 20260509085515 | 55 | 275 | 7.0 | 20.0 | 0.00 | 0.00 | 0.00 | 71 | 1000.9 |
| 20260509085022 | 55 | 217 | 8.0 | 20.0 | 0.00 | 0.00 | 0.00 | 71 | 1000.8 |
| 20260509084534 | 55 | 247 | 7.0 | 18.0 | 0.00 | 0.00 | 0.00 | 70 | 1000.8 |
| 20260509084016 | 55 | 204 | 7.0 | 16.0 | 0.00 | 0.00 | 0.00 | 70 | 1000.7 |
| 20260509083516 | 55 | 217 | 8.0 | 16.0 | 0.00 | 0.00 | 0.00 | 70 | 1000.7 |
| 20260509083031 | 55 | 198 | 6.0 | 15.0 | 0.00 | 0.00 | 0.00 | 70 | 1000.7 |
| 20260509082520 | 55 | 259 | 7.0 | 15.0 | 0.00 | 0.00 | 0.00 | 69 | 1000.6 |
| 20260509082016 | 55 | 184 | 8.0 | 14.0 | 0.00 | 0.00 | 0.00 | 69 | 1000.6 |
| 20260509081541 | 55 | 194 | 9.0 | 14.0 | 0.00 | 0.00 | 0.00 | 69 | 1000.7 |
| 20260509081016 | 55 | 203 | 6.0 | 13.0 | 0.00 | 0.00 | 0.00 | 68 | 1000.7 |
| 20260509080516 | 55 | 184 | 6.0 | 13.0 | 0.00 | 0.00 | 0.00 | 68 | 1000.6 |
| 20260509080030 | 55 | 236 | 6.0 | 11.0 | 0.00 | 0.00 | 0.00 | 67 | 1000.6 |
| 20260509075517 | 54 | 257 | 6.0 | 14.0 | 0.00 | 0.00 | 0.00 | 67 | 1000.7 |
| 20260509075016 | 54 | 213 | 7.0 | 14.0 | 0.00 | 0.00 | 0.00 | 66 | 1000.7 |
| 20260509074536 | 54 | 232 | 5.0 | 11.0 | 0.00 | 0.00 | 0.00 | 66 | 1000.9 |
| 20260509074016 | 54 | 209 | 5.0 | 11.0 | 0.00 | 0.00 | 0.00 | 65 | 1000.9 |
| 20260509073516 | 54 | 206 | 4.0 | 9.0 | 0.00 | 0.00 | 0.00 | 65 | 1001.0 |
| 20260509073033 | 54 | 208 | 3.0 | 10.0 | 0.00 | 0.00 | 0.00 | 65 | 1001.0 |
| 20260509072521 | 54 | 204 | 4.0 | 10.0 | 0.00 | 0.00 | 0.00 | 64 | 1001.0 |
| 20260509072015 | 54 | 228 | 3.0 | 7.0 | 0.00 | 0.00 | 0.00 | 64 | 1001.2 |
| 20260509071530 | 54 | 201 | 3.0 | 6.0 | 0.00 | 0.00 | 0.00 | 63 | 1001.2 |
| 20260509071016 | 54 | 205 | 4.0 | 6.0 | 0.00 | 0.00 | 0.00 | 63 | 1001.3 |
| 20260509070516 | 54 | 200 | 2.0 | 7.0 | 0.00 | 0.00 | 0.00 | 63 | 1001.4 |
| 20260509070031 | 54 | 210 | 3.0 | 7.0 | 0.00 | 0.00 | 0.00 | 62 | 1001.4 |
| 20260509065519 | 54 | 194 | 3.0 | 7.0 | 0.00 | 0.00 | 0.00 | 62 | 1001.4 |
| 20260509065016 | 54 | 174 | 2.0 | 6.0 | 0.00 | 0.00 | 0.00 | 62 | 1001.6 |
| 20260509064531 | 54 | 182 | 2.0 | 7.0 | 0.00 | 0.00 | 0.00 | 62 | 1001.8 |
| 20260509064014 | 54 | 181 | 3.0 | 7.0 | 0.00 | 0.00 | 0.00 | 62 | 1002.1 |
| 20260509063516 | 54 | 183 | 3.0 | 8.0 | 0.00 | 0.00 | 0.00 | 62 | 1002.1 |
| 20260509063030 | 55 | 224 | 2.0 | 10.0 | 0.00 | 0.00 | 0.00 | 61 | 1002.2 |
| 20260509062518 | 56 | 197 | 5.0 | 10.0 | 0.00 | 0.00 | 0.00 | 60 | 1002.3 |
| 20260509062014 | 54 | 182 | 4.0 | 9.0 | 0.00 | 0.00 | 0.00 | 63 | 1002.6 |
| 20260509061543 | 53 | 217 | 4.0 | 9.0 | 0.00 | 0.00 | 0.00 | 66 | 1002.8 |
| 20260509061021 | 53 | 304 | 2.0 | 4.0 | 0.00 | 0.00 | 0.00 | 66 | 1003.1 |
| 20260509060520 | 53 | 323 | 2.0 | 4.0 | 0.00 | 0.00 | 0.00 | 66 | 1002.9 |
| 20260509060031 | 53 | 306 | 2.0 | 4.0 | 0.00 | 0.00 | 0.00 | 65 | 1002.6 |
| 20260509055516 | 52 | 273 | 1.0 | 3.0 | 0.00 | 0.00 | 0.00 | 66 | 1002.5 |
| 20260509055024 | 52 | 290 | 1.0 | 4.0 | 0.00 | 0.00 | 0.00 | 67 | 1002.6 |
| 20260509054531 | 52 | 200 | 1.0 | 4.0 | 0.00 | 0.00 | 0.00 | 66 | 1002.7 |
| 20260509054016 | 53 | 198 | 2.0 | 4.0 | 0.00 | 0.00 | 0.00 | 66 | 1002.6 |
| 20260509053516 | 53 | 177 | 1.0 | 4.0 | 0.00 | 0.00 | 0.00 | 66 | 1002.8 |
| 20260509053032 | 52 | 153 | 0.0 | 7.0 | 0.00 | 0.00 | 0.00 | 67 | 1002.8 |
| 20260509052517 | 52 | 215 | 2.0 | 10.0 | 0.00 | 0.00 | 0.00 | 67 | 1002.9 |
| 20260509052021 | 52 | 182 | 4.0 | 10.0 | 0.00 | 0.00 | 0.00 | 67 | 1002.7 |
| 20260509051533 | 52 | 170 | 6.0 | 10.0 | 0.00 | 0.00 | 0.00 | 67 | 1002.7 |
| 20260509051016 | 52 | 173 | 4.0 | 9.0 | 0.00 | 0.00 | 0.00 | 67 | 1002.9 |
| 20260509050515 | 52 | 165 | 5.0 | 9.0 | 0.00 | 0.00 | 0.00 | 67 | 1003.0 |
| 20260509050046 | 52 | 182 | 4.0 | 10.0 | 0.00 | 0.00 | 0.00 | 67 | 1003.1 |
| 20260509045515 | 52 | 153 | 5.0 | 10.0 | 0.00 | 0.00 | 0.00 | 67 | 1003.1 |
| 20260509045016 | 52 | 182 | 4.0 | 8.0 | 0.00 | 0.00 | 0.00 | 67 | 1003.1 |
| 20260509044542 | 52 | 156 | 5.0 | 9.0 | 0.00 | 0.00 | 0.00 | 67 | 1003.1 |
| 20260509044015 | 52 | 169 | 6.0 | 9.0 | 0.00 | 0.00 | 0.00 | 67 | 1003.2 |
| 20260509043515 | 52 | 176 | 4.0 | 7.0 | 0.00 | 0.00 | 0.00 | 66 | 1003.5 |
| 20260509043033 | 52 | 186 | 3.0 | 8.0 | 0.00 | 0.00 | 0.00 | 66 | 1003.5 |
| 20260509042520 | 52 | 190 | 3.0 | 8.0 | 0.00 | 0.00 | 0.00 | 66 | 1003.6 |
| 20260509042013 | 52 | 163 | 4.0 | 8.0 | 0.00 | 0.00 | 0.00 | 65 | 1003.7 |
| 20260509041531 | 52 | 171 | 3.0 | 6.0 | 0.00 | 0.00 | 0.00 | 65 | 1003.7 |
| 20260509041016 | 52 | 164 | 3.0 | 7.0 | 0.00 | 0.00 | 0.00 | 65 | 1003.7 |
| 20260509040515 | 52 | 193 | 2.0 | 7.0 | 0.00 | 0.00 | 0.00 | 65 | 1003.9 |
| 20260509040031 | 52 | 151 | 3.0 | 7.0 | 0.00 | 0.00 | 0.00 | 65 | 1003.9 |
| 20260509035515 | 52 | 137 | 3.0 | 7.0 | 0.00 | 0.00 | 0.00 | 65 | 1003.9 |
| 20260509035013 | 52 | 174 | 3.0 | 6.0 | 0.00 | 0.00 | 0.00 | 65 | 1003.8 |
| 20260509034529 | 52 | 164 | 2.0 | 6.0 | 0.00 | 0.00 | 0.00 | 65 | 1004.0 |
| 20260509034015 | 52 | 172 | 2.0 | 6.0 | 0.00 | 0.00 | 0.00 | 65 | 1004.0 |
| 20260509033515 | 52 | 150 | 3.0 | 6.0 | 0.00 | 0.00 | 0.00 | 64 | 1003.9 |
| 20260509033030 | 52 | 203 | 3.0 | 6.0 | 0.00 | 0.00 | 0.00 | 64 | 1004.1 |
| 20260509032518 | 52 | 176 | 3.0 | 6.0 | 0.00 | 0.00 | 0.00 | 64 | 1004.2 |
| 20260509032016 | 52 | 177 | 2.0 | 6.0 | 0.00 | 0.00 | 0.00 | 63 | 1004.2 |
| 20260509031534 | 53 | 169 | 2.0 | 5.0 | 0.00 | 0.00 | 0.00 | 63 | 1004.2 |
| 20260509031014 | 53 | 162 | 2.0 | 6.0 | 0.00 | 0.00 | 0.00 | 62 | 1004.2 |
| 20260509030519 | 53 | 162 | 3.0 | 6.0 | 0.00 | 0.00 | 0.00 | 61 | 1004.3 |
| 20260509030034 | 53 | 150 | 3.0 | 5.0 | 0.00 | 0.00 | 0.00 | 61 | 1004.4 |
| 20260509025516 | 53 | 197 | 2.0 | 6.0 | 0.00 | 0.00 | 0.00 | 60 | 1004.4 |
| 20260509025017 | 54 | 147 | 2.0 | 7.0 | 0.00 | 0.00 | 0.00 | 60 | 1004.4 |
| 20260509024530 | 54 | 171 | 3.0 | 7.0 | 0.00 | 0.00 | 0.00 | 59 | 1004.4 |
| 20260509024020 | 54 | 159 | 4.0 | 7.0 | 0.00 | 0.00 | 0.00 | 59 | 1004.5 |
| 20260509023518 | 54 | 168 | 4.0 | 7.0 | 0.00 | 0.00 | 0.00 | 58 | 1004.5 |
| 20260509023035 | 54 | 192 | 4.0 | 9.0 | 0.00 | 0.00 | 0.00 | 56 | 1004.6 |
| 20260509022515 | 54 | 192 | 4.0 | 9.0 | 0.00 | 0.00 | 0.00 | 56 | 1004.6 |
| 20260509022012 | 55 | 150 | 4.0 | 7.0 | 0.00 | 0.00 | 0.00 | 55 | 1004.7 |
| 20260509021532 | 55 | 169 | 4.0 | 9.0 | 0.00 | 0.00 | 0.00 | 54 | 1004.7 |
| 20260509021013 | 55 | 138 | 2.0 | 9.0 | 0.00 | 0.00 | 0.00 | 53 | 1004.7 |
| 20260509020516 | 55 | 134 | 4.0 | 9.0 | 0.00 | 0.00 | 0.00 | 52 | 1004.7 |
| 20260509020030 | 55 | 174 | 4.0 | 9.0 | 0.00 | 0.00 | 0.00 | 51 | 1004.7 |
| 20260509015516 | 55 | 159 | 4.0 | 10.0 | 0.00 | 0.00 | 0.00 | 50 | 1004.7 |
| 20260509015016 | 55 | 174 | 3.0 | 11.0 | 0.00 | 0.00 | 0.00 | 49 | 1004.6 |
| 20260509014535 | 55 | 153 | 5.0 | 11.0 | 0.00 | 0.00 | 0.00 | 48 | 1004.6 |
| 20260509014015 | 55 | 149 | 5.0 | 10.0 | 0.00 | 0.00 | 0.00 | 47 | 1004.6 |
| 20260509013517 | 55 | 202 | 4.0 | 10.0 | 0.00 | 0.00 | 0.00 | 47 | 1004.6 |
| 20260509013045 | 54 | 165 | 5.0 | 11.0 | 0.00 | 0.00 | 0.00 | 46 | 1004.5 |